Flagstaff, AZ

11:19 PM MST on November 21, 2017 (GMT -0700)
Flagstaff Pulliam

Weather History for KFLG - June, 2013

Change the Weather History Date:

Wednesday, June 19, 2013

  Actual Average Record
Temperature  
Mean Temperature 63 °F 61 °F  
Max Temperature 80 °F 79 °F 93 °F (2016)
Min Temperature 45 °F 43 °F 25 °F (1979)
Degree Days  
Heating Degree Days 2 5  
Month to date heating degree days 35 135  
Since 1 July heating degree days 6696 6908  
Cooling Degree Days 0 1  
Month to date cooling degree days 16 2  
Year to date cooling degree days 16 2  
Growing Degree Days 12 (Base 50)    
Moisture  
Dew Point 15 °F    
Average Humidity 16    
Maximum Humidity 23    
Minimum Humidity 9    
Precipitation  
Precipitation 0.00 in 0.01 in 0.45 in (1967)
Month to date precipitation 0.01 0.19  
Year to date precipitation 5.24 8.30  
Snow  
Snow 0.00 in 0.00 in 0.00 in (2002)
Month to date snowfall 0.0 0.1  
Since 1 July snowfall 69.7 101.8  
Snow Depth 0.00 in    
Sea Level Pressure  
Sea Level Pressure 29.75 in    
Wind  
Wind Speed 14 mph (SW)    
Max Wind Speed 30 mph    
Max Gust Speed 37 mph    
Visibility 10 miles    
Events      
T = Trace of Precipitation, MM = Missing Value Source: NWS Daily Summary

Daily Weather History Graph

Daily Weather History Graph

Search for Another Location

Airport or City:

Trip Planner

Search our weather history database for the weather conditions in past years. The results will help you decide how hot, cold, wet, or windy it might be!

Date:

Astronomy

Jun. 19, 2013 Rise Set
Actual Time 5:12 AM MST 7:43 PM MST
Civil Twilight 4:42 AM MST 8:13 PM MST
Nautical Twilight 4:05 AM MST 8:50 PM MST
Astronomical Twilight 3:24 AM MST 9:31 PM MST
Moon 3:46 PM MST (6/19) 1:52 AM MST (6/19)
Length of Visible Light 15h 31m
Length of Day
14h 31m
Waxing Gibbous, 81% of the Moon is Illuminated
Jun 19
Waxing Gibbous
Jun 23
Full
Jun 29
Last Quarter
Jul 8
New
Jul 15
First Quarter

Hourly Weather History & Observations

Time (MST) Temp. Dew Point Humidity Pressure Visibility Wind Dir Wind Speed Gust Speed Precip Events Conditions
12:57 AM 46.0 °F 10.0 °F 23% 29.80 in 10.0 mi Calm Calm - N/A   Clear
1:57 AM 48.9 °F 10.9 °F 22% 29.76 in 10.0 mi SSW 4.6 mph - N/A   Clear
2:57 AM 53.1 °F 10.9 °F 19% 29.74 in 10.0 mi SW 6.9 mph - N/A   Clear
3:57 AM 57.0 °F 10.9 °F 16% 29.72 in 10.0 mi WSW 8.1 mph - N/A   Clear
4:57 AM 57.0 °F 12.0 °F 17% 29.73 in 10.0 mi WSW 9.2 mph - N/A   Clear
5:57 AM 55.9 °F 12.9 °F 18% 29.74 in 10.0 mi WSW 6.9 mph - N/A   Clear
6:57 AM 62.1 °F 16.0 °F 17% 29.74 in 10.0 mi SW 15.0 mph - N/A   Clear
7:57 AM 66.0 °F 18.0 °F 16% 29.75 in 10.0 mi SSW 20.7 mph 26.5 mph N/A   Clear
8:57 AM 70.0 °F 18.0 °F 14% 29.75 in 10.0 mi SSW 17.3 mph 23.0 mph N/A   Clear
9:57 AM 73.0 °F 16.0 °F 11% 29.77 in 10.0 mi SW 18.4 mph 32.2 mph N/A   Clear
10:57 AM 73.9 °F 18.0 °F 12% 29.79 in 10.0 mi SSW 21.9 mph 28.8 mph N/A   Clear
12:57 PM 79.0 °F 18.0 °F 10% 29.79 in 10.0 mi SW 16.1 mph 36.8 mph N/A   Clear
2:57 PM 78.1 °F 17.1 °F 10% 29.75 in 10.0 mi SSW 23.0 mph 36.8 mph N/A   Clear
3:57 PM 79.0 °F 16.0 °F 9% 29.73 in 10.0 mi SW 18.4 mph 26.5 mph N/A   Clear
4:57 PM 77.0 °F 16.0 °F 10% 29.73 in 10.0 mi SSW 18.4 mph 33.4 mph N/A   Clear
6:57 PM 73.0 °F 16.0 °F 11% 29.74 in 10.0 mi SW 19.6 mph 27.6 mph N/A   Clear
7:57 PM 69.1 °F 16.0 °F 13% 29.74 in 10.0 mi SW 12.7 mph - N/A   Clear
8:57 PM 66.9 °F 16.0 °F 14% 29.75 in 10.0 mi WSW 10.4 mph - N/A   Clear
9:57 PM 64.0 °F 15.1 °F 15% 29.76 in 10.0 mi WSW 8.1 mph - N/A   Clear
10:57 PM 63.0 °F 15.1 °F 16% 29.75 in 10.0 mi WSW 8.1 mph - N/A   Clear
11:57 PM 61.0 °F 16.0 °F 17% 29.75 in 10.0 mi WSW 5.8 mph - N/A   Clear